Regional Weather Roundup
Issued by NWS

Home | Current Version | Previous Version | Text Only | Print | Product List | Glossary Off
Versions: 1 2 3 4 5 6 7 8 9 10 11 12 13 14 15 16 17 18 19 20 21 22 23 24 25 26 27 28 29 30 31 32 33 34 35 36 37 38 39 40 41 42 43 44 45 46 47 48 49 50

000
ASUS43 KMPX 200301
RWRMN
WEATHER ROUNDUP FOR MINNESOTA
NATIONAL WEATHER SERVICE TWIN CITIES/CHANHASSEN MN
900 PM CST SUN FEB 19 2017


NOTE: "FAIR" INDICATES FEW OR NO CLOUDS BELOW 12,000 FEET WITH NO
SIGNIFICANT WEATHER AND/OR OBSTRUCTIONS TO VISIBILITY. N/A MEANS
CURRENT SKY AND/OR WEATHER CONDITIONS ARE NOT AVAILABLE.

MNZ060>063-068>070-200400-
   Twin Cities Metro

CITY           SKY/WX    TMP DP  RH WIND       PRES   REMARKS
TWIN CITIES    CLOUDY    51  38  60 SE13G21   29.88S
ST PAUL        PTCLDY    51  38  60 SE13      29.88F
CRYSTAL        PTCLDY    64  37  36 SE15      29.86R
LAKEVILLE      PTCLDY    46  39  76 SE5       29.88S
EDEN PRAIRIE   CLOUDY    52  41  66 SE13      29.86R
SOUTH ST PAUL  CLOUDY    51  37  57 SE8       29.89S
LAKE ELMO      FAIR      52  37  58 SE10G20   29.90S
$$
MNZ001>005-007-008-013>017-022>024-027-028-200400-
   Northwest Minnesota

CITY           SKY/WX    TMP DP  RH WIND       PRES   REMARKS
BEMIDJI        CLOUDY    42  32  67 SE14      29.77R
HALLOCK        CLOUDY    45  36  70 SE20G25   29.63S
ROSEAU         PTCLDY    43  34  70 E9        29.72F
WARROAD        CLOUDY    37  32  81 E9        29.75F
THIEF RVR FALL CLOUDY    42  34  73 SE20      29.68F
CROOKSTON      CLOUDY    43  37  81 SE17      29.65S
FOSSTON        PTCLDY    45  36  70 SE16      29.70S
DETROIT LAKES  CLOUDY    45  39  81 SE15      29.71F
MOORHEAD       CLOUDY    52  46  82 SE21      29.64F
PARK RAPIDS    CLOUDY    45  34  65 SE14      29.76S
MAHNOMEN       FAIR      48  40  72 SE16G24   29.68S
$$
MNZ006-009>011-018-025>026-200400-
   North Central Minnesota

CITY           SKY/WX    TMP DP  RH WIND       PRES   REMARKS
BAUDETTE       PTCLDY    39  30  70 SE12      29.77R
FLAG ISLAND    CLOUDY    41  30  65 E13G20    29.76S
INTL FALLS     CLOUDY    41  29  62 E13       29.84S
WASKISH        PTCLDY    46  32  57 SE13G18   29.79R
BIG FORK       PTCLDY    43  30  61 SE8G20    29.84S
LONGVILLE      CLOUDY    43  30  61 SE6       29.82R
GRAND RAPIDS   CLOUDY    39  30  70 SE10G17   29.88R
CRANE LAKE     CLOUDY    36  28  75 CALM      29.93S
ORR            CLOUDY    39  27  60 SE6       29.87R
COOK           CLOUDY    39  28  65 SE9       29.90S
WALKER         FAIR      45  33  64 E6        29.78S
$$
MNZ012-019>021-037-200400-
   Northeast Minnesota

CITY           SKY/WX    TMP DP  RH WIND       PRES   REMARKS
DULUTH         CLOUDY    37  30  75 E18       29.93S
ELY            CLOUDY    36  28  75 SE10      29.94S
HIBBING        CLOUDY    36  29  75 SE10      29.91R
EVELETH        PTCLDY    37  27  65 E7        29.93S
DULUTH HARBOR  PTCLDY    36  34  93 NE15      29.98S
TWO HARBORS    CLOUDY    39  30  70 NE12      29.96S
GRAND MARAIS     N/A     38  28  67 NE16G23   30.06F
G MARAIS ARPRT CLOUDY    34  23  64 E10G16    30.03F WCI  26
$$
MNZ029>031-032-039>041-046>048-054>057-064-200400-
   West Central Minnesota

CITY           SKY/WX    TMP DP  RH WIND       PRES   REMARKS
FERGUS FALLS   CLOUDY    50  45  81 SE20      29.71F
WHEATON        CLOUDY    48  46  93 SE16      29.67S
MORRIS         PTCLDY    50  48  93 SE16      29.69F FOG
ALEXANDRIA     CLOUDY    47  44  90 SE13      29.75S
ELBOW LAKE     FAIR      50  48  92 E18       29.69F
WADENA         PTCLDY    45  39  81 SE10G16   29.75S
GLENWOOD       CLOUDY    50  46  87 SE17      29.76S
APPLETON       CLOUDY    55  48  76 SE12G18   29.70R
BENSON         PTCLDY    54  46  76 S15G21    29.74S
ORTONVILLE     CLOUDY    52  46  82 SE15      29.67S
WILLMAR        FAIR      52  48  87 SE17      29.76S
$$
MNZ033>034-036-042>043-049>051-058-059-200400-
   Central Minnesota

CITY           SKY/WX    TMP DP  RH WIND       PRES   REMARKS
ST CLOUD       PTCLDY    50  41  71 SE12      29.81F
SAUK CENTRE    FAIR      47  44  88 SE9       29.78S
PAYNESVILLE    CLOUDY    50  44  81 SE14      29.78S
AITKIN         CLOUDY    48  30  49 E7        29.83F
PINE RIVER     PTCLDY    45  36  70 SE9       29.84S
BRAINERD       CLOUDY    48  38  68 SE10      29.82S
STAPLES        PTCLDY    46  39  76 SE9       29.78R
LONG PRAIRIE   FAIR      46  41  81 E9        29.79S
LITTLE FALLS   PTCLDY    46  37  71 SE8       29.81R
LITCHFIELD     PTCLDY    52  46  82 SE13G21   29.80F
BUFFALO        CLOUDY    51  41  70 SE9       29.84F
MAPLE LAKE     PTCLDY    49  44  81 SE9       29.83F
HUTCHINSON     CLOUDY    49  46  88 SE13      29.81F
$$
MNZ037-044-045-052-053-200400-
   East Central Minnesota

CITY           SKY/WX    TMP DP  RH WIND       PRES   REMARKS
PRINCETON      PTCLDY    52  39  62 SE8       29.85F
MORA           PTCLDY    45  34  65 SE6       29.88F
CAMBRIDGE      CLOUDY    54  37  54 SE7       29.85S
RUSH CITY      PTCLDY    50  36  57 SE12G17   29.88S
MOOSE LAKE     CLOUDY    34  32  93 NE3       29.89S
HINCKLEY       FAIR      46  32  57 E5        29.89S
CLOQUET        CLOUDY    36  30  80 E14       29.91F
MCGREGOR       CLOUDY    37  32  81 E7        29.88R
$$
MNZ071>073-080-081-089-090-097-098-200400-
   Southwest Minnesota

CITY           SKY/WX    TMP DP  RH WIND       PRES   REMARKS
MONTEVIDEO     MOCLDY    55  50  82 S17G24    29.73R
GRANITE FALLS  CLOUDY    55  51  86 SE21G26   29.73F
CANBY          CLOUDY    55  48  77 SE10      29.70S
MARSHALL       CLOUDY    53  48  83 S15       29.72S
REDWOOD FALLS  CLOUDY    53  48  83 SE17      29.76S
OLIVIA         PTCLDY    52  46  82 SE16      29.76S
PIPESTONE      MOCLDY    54  45  71 S15       29.72S
WINDOM         CLOUDY    54  46  76 SE14G20   29.79R
WORTHINGTON    CLOUDY    53  47  79 S16G22    29.77S
JACKSON        CLOUDY    52  45  76 SE12      29.81S
TRACY          CLOUDY    55  50  82 S16G22    29.74S
SLAYTON        CLOUDY    50  47  88 SE12      29.76R
$$
MNZ065>067-074>077-082>085-091>093-200400-
   South Central Minnesota

CITY           SKY/WX    TMP DP  RH WIND       PRES   REMARKS
MANKATO          N/A     51  44  77 SE16      29.84S
NEW ULM        CLOUDY    54  46  76 SE17G23   29.79F
ST JAMES       CLOUDY    52  48  87 SE15      29.82F
FAIRMONT       CLOUDY    51  47  86 SE14      29.83F
GLENCOE        PTCLDY    52  47  85 SE13      29.82F
FARIBAULT      CLOUDY    52  43  71 SE14      29.88S
OWATONNA       CLOUDY    52  41  66 SE15      29.88F
WASECA         CLOUDY    50  43  76 SE14      29.88S
ALBERT LEA     CLOUDY    52  43  71 SE9       29.89S
$$
MNZ078>079-086>088-094>096-200400-
   Southeast Minnesota

CITY           SKY/WX    TMP DP  RH WIND       PRES   REMARKS
ROCHESTER      PTCLDY    45  39  79 SE14      29.93R
RED WING       CLOUDY    52  34  50 SE10      29.91S
STANTON        PTCLDY    53  40  62 SE15G23   29.87S
WINONA         CLOUDY    48  37  66 S5        29.97R
AUSTIN         PTCLDY    46  39  76 SE8       29.91S
PRESTON        PTCLDY    49  37  64 SE9       29.94S
$$
ABBREVIATIONS USED IN REMARKS
   TC - TEMPERATURES IN CELSIUS
  WCI - WIND CHILL INDEX
   HX - HEAT INDEX
  VSB - VISIBILITY
$$



USA.gov is the U.S. government's official web portal to all federal, state and local government web resources and services.